Location: Liberty
(32.6612°N, 88.7589°W)
Time: 23:44:09
(UTC+00:00)

Hubble Space Telescope - Visible Passes

Search period start: 10 December 2023 00:00
Search period end: 20 December 2023 00:00
Orbit: 518 x 522 km, 28.5° (Epoch: 10 December)

Date Brightness Start Highest point End Pass type
(mag) Time Alt. Az. Time Alt. Az. Time Alt. Az.
16 Dec 3.4 12:09:20 10° SSW 12:12:04 18° SSE 12:14:48 10° ESE visible
17 Dec 3.1 11:52:31 10° SSW 11:55:31 20° SSE 11:58:30 10° ESE visible
18 Dec 2.8 11:35:46 10° SW 11:38:57 23° SSE 11:42:10 10° ESE visible
19 Dec 2.6 11:19:39 13° SW 11:22:24 25° SSE 11:25:47 10° ESE visible
